Wind_Speed
6 5 5 4 4 5 5 4 3 2 2 2 2 2 1 2 2 2 1 1 0 1 1 1 1 2 3 3 4 3 3 3 3 3 3 3 3 2 2 2 2 1 1 0 0 1 1 1 2
8 7 7 7 6 5 7 6 5 4 3 3 2 2 2 2 2 1 1 2 1 1 1 1 2 3 4 5 5 5 5 4 4 4 4 4 4 4 4 3 3 3 3 3 3 3 2 2 1
10 10 10 10 9 9 9 8 7 6 5 4 3 3 3 2 2 2 2 2 2 2 3 3 4 5 6 6 6 7 6 6 6 6 6 6 6 6 6 6 5 5 6 6 5 5 5 5 4
12 13 13 12 13 13 11 10 9 8 7 6 5 4 4 3 3 3 3 3 3 3 4 5 6 6 7 8 8 8 8 8 8 9 9 8 8 8 8 8 7 7 7 7 7 8 8 8 7
15 15 15 16 16 15 14 13 11 10 9 8 7 6 5 4 4 4 4 4 4 4 5 6 8 9 9 10 10 10 10 10 10 10 10 10 10 10 9 9 9 9 9 9 9 9 9 9 9
18 18 18 19 20 18 16 15 13 13 11 10 9 8 6 6 5 5 5 5 5 6 7 8 9 10 11 12 12 12 12 12 12 12 12 12 11 11 10 11 11 11 11 11 11 11 11 11 11
20 21 21 22 22 22 20 17 16 15 14 13 12 11 8 6 6 6 6 7 7 8 9 11 12 13 13 14 14 14 14 14 14 14 13 13 13 12 13 13 13 12 12 12 13 13 13 13 13
22 23 24 25 25 25 23 20 19 18 17 16 15 14 11 9 8 8 9 10 10 10 12 14 15 15 15 16 16 16 16 16 16 16 16 16 16 16 15 15 15 15 14 14 15 14 15 15 15
24 24 26 27 28 28 25 24 22 20 20 19 18 17 14 11 11 11 12 13 13 13 15 16 17 17 17 18 19 19 19 20 19 19 20 20 20 20 19 18 18 18 17 17 17 17 17 17 17
23 25 27 29 28 28 27 26 24 23 22 21 19 19 16 14 14 14 15 16 16 17 17 18 19 20 20 20 21 21 21 21 21 22 22 23 24 24 23 22 21 21 20 20 20 19 19 19 19
20 23 26 27 27 27 27 27 26 25 24 22 21 18 18 17 17 17 18 19 20 20 20 21 22 23 23 23 24 24 24 24 24 25 26 27 27 28 27 25 25 24 24 23 22 22 21 20 20
16 18 22 24 24 24 25 26 25 26 25 24 23 21 20 20 20 21 21 21 21 21 22 23 23 24 25 25 25 25 26 27 27 28 29 28 28 28 29 27 26 26 25 25 25 24 23 23 22
11 13 16 18 20 21 22 24 24 25 25 25 24 23 23 22 22 22 22 22 22 23 23 23 23 24 24 24 24 24 25 26 27 28 27 26 26 26 26 27 26 25 25 25 25 25 25 24 24
9 10 10 13 15 17 19 21 22 24 24 24 23 23 22 22 22 22 22 22 22 22 22 22 22 24 24 22 22 22 21 21 22 23 24 24 25 26 26 26 26 26 26 26 26 27 27 27 26
9 7 7 9 11 13 15 18 20 22 23 23 23 23 22 22 22 22 21 21 20 21 21 21 21 21 21 19 19 18 19 20 21 22 22 23 23 24 25 25 25 26 27 27 28 29 29 29 29
10 8 6 8 9 11 13 16 19 20 21 22 23 23 22 22 21 20 20 19 19 19 19 19 17 17 16 16 18 18 19 20 21 22 23 23 23 22 23 24 25 25 26 28 29 29 30 31 31
11 8 7 9 8 10 12 16 18 19 20 21 22 22 22 21 20 19 18 18 17 17 17 16 16 15 15 16 17 18 18 19 20 21 22 23 23 23 24 25 26 27 28 28 29 30 31 32 32
6 7 8 9 9 9 12 14 16 17 18 19 20 20 20 20 19 18 18 17 15 15 14 15 15 15 15 16 16 17 18 19 21 21 22 23 23 23 25 26 26 28 29 30 30 31 31 32 31
6 6 8 9 9 10 11 13 14 15 17 19 19 19 19 17 17 16 14 13 13 12 12 13 14 14 15 16 17 18 19 20 22 22 23 23 24 24 25 26 26 27 28 29 30 31 31 32 32
7 8 9 9 8 9 10 10 11 12 14 16 16 16 16 15 14 13 12 12 11 11 11 12 13 14 15 17 18 20 21 22 23 23 23 24 24 24 25 25 25 26 27 28 28 29 30 31 31
7 7 8 8 8 8 9 9 9 8 8 8 10 10 10 10 10 9 9 9 9 10 12 13 15 16 17 19 20 21 22 23 23 24 24 24 24 24 25 24 25 26 27 28 28 29 29 30 31
7 7 7 7 8 8 9 10 9 6 4 4 4 4 5 6 5 6 7 8 9 11 13 15 16 18 20 21 22 22 23 23 24 24 24 24 24 24 24 24 25 26 27 28 28 29 30 31 32
6 6 7 6 6 7 8 9 8 6 3 1 2 2 2 3 5 6 8 9 11 13 15 17 18 19 20 21 22 22 23 23 24 24 24 24 24 24 24 25 26 26 27 28 29 30 31 31 32
6 6 6 6 7 7 7 8 8 7 5 3 2 2 3 4 6 8 10 11 13 15 16 18 19 20 20 21 21 22 23 23 23 23 23 24 24 25 25 25 26 27 28 29 30 30 31 32 33
6 5 6 7 8 8 7 6 7 7 6 5 5 5 5 7 8 10 12 13 14 16 17 19 20 20 21 21 21 22 22 23 23 23 24 24 25 25 25 26 26 27 28 29 30 31 32 33 34
6 4 3 3 5 7 8 7 8 7 7 7 7 7 7 9 10 12 13 14 15 17 18 19 20 20 21 21 22 22 22 23 23 23 24 24 25 26 26 27 27 28 29 30 31 32 33 34 35
6 4 4 5 6 7 8 9 9 8 8 8 8 8 9 10 12 13 15 15 16 17 18 19 20 20 21 21 21 22 22 22 22 23 24 25 26 27 27 28 29 29 30 31 32 33 34 34 35
7 7 6 4 4 5 8 9 10 10 9 9 9 10 11 12 13 15 16 17 17 18 18 19 20 20 21 21 21 22 22 23 23 24 26 26 27 28 29 30 31 31 32 32 33 34 34 35 35
9 9 8 6 6 4 6 10 11 10 10 10 10 11 12 13 14 15 16 16 17 17 18 19 20 20 21 21 22 23 23 24 25 27 28 29 30 31 31 32 33 33 34 34 34 35 35 35 35
10 9 8 7 9 8 7 11 12 12 11 11 11 12 13 14 15 15 16 16 17 17 18 19 20 21 21 22 23 24 25 26 28 29 30 31 32 33 34 34 35 35 36 36 36 35 35 35 35
Wind_Direction
349 335 320 308 310 314 301 296 294 309 320 337 340 341 358 9 20 14 353 317 163 184 180 185 229 245 250 251 248 238 227 214 200 192 192 189 183 178 178 178 179 192 192 172 41 21 35 60 67
327 313 295 293 293 285 284 286 286 291 299 315 328 342 351 5 1 358 329 304 265 248 243 246 256 253 250 250 250 246 244 239 235 231 231 235 236 233 227 227 230 237 245 253 261 268 278 285 292
306 296 288 287 282 270 274 278 279 278 284 293 305 324 333 340 343 313 303 293 270 270 271 271 266 260 255 252 253 250 249 249 251 250 250 251 250 247 245 245 246 248 252 258 266 267 270 273 274
293 288 280 276 271 274 272 271 273 271 273 275 287 303 317 319 322 315 301 290 284 284 285 276 272 268 261 256 254 253 254 254 257 259 258 258 258 256 254 251 252 253 255 260 266 268 269 270 271
282 279 275 272 268 267 266 263 264 264 268 267 273 283 301 314 316 313 302 292 290 291 292 281 276 273 268 264 261 262 262 262 261 260 260 260 259 259 256 254 253 253 254 257 260 262 265 267 269
275 272 266 259 262 261 259 257 256 257 259 260 265 273 286 298 303 303 299 291 288 289 287 284 281 278 275 271 270 269 268 267 265 263 261 259 256 255 255 255 255 254 255 258 259 259 260 263 266
268 265 260 258 259 257 257 254 251 251 254 253 259 263 274 287 296 297 302 297 290 288 283 282 280 278 276 273 272 272 270 268 266 265 261 258 255 255 255 255 257 258 258 260 261 261 262 263 265
265 261 258 254 253 252 254 251 250 250 250 252 256 260 269 283 293 299 302 302 297 292 287 285 282 279 276 274 274 273 270 268 266 264 263 261 259 258 257 256 258 259 260 261 263 264 264 265 265
263 256 252 250 248 248 249 248 249 251 250 250 255 263 269 279 290 297 300 298 296 293 291 287 282 279 278 277 276 275 271 267 267 265 265 265 263 261 260 259 260 262 263 264 265 266 267 267 266
263 252 250 251 248 248 247 246 248 250 251 251 257 263 270 280 289 295 298 297 294 291 287 284 280 277 275 276 275 274 271 269 269 269 270 270 267 265 264 263 263 264 264 265 266 268 269 270 268
268 256 253 251 248 247 246 246 246 247 248 255 260 266 278 283 290 294 295 297 296 290 284 282 279 277 275 274 273 271 270 270 271 272 273 272 269 267 265 266 265 265 265 265 267 268 269 271 272
275 263 256 253 249 247 245 246 244 244 247 253 259 266 275 283 289 293 294 295 292 288 283 281 277 275 275 274 272 274 274 271 270 271 273 275 273 273 268 269 270 268 268 267 269 270 271 272 274
289 273 263 256 250 247 245 244 245 247 250 253 259 266 275 282 288 290 291 291 288 285 281 278 277 275 278 276 275 276 279 277 275 275 276 278 278 278 277 271 270 271 271 270 273 273 273 273 273
311 291 273 258 252 247 245 244 244 246 252 254 258 265 273 279 284 287 289 290 287 285 283 280 281 281 280 280 279 281 284 286 285 288 285 282 281 282 281 276 273 273 271 272 274 276 275 273 274
336 316 292 270 260 252 248 247 247 248 251 255 259 266 271 276 280 283 285 286 287 286 287 287 286 286 282 283 284 286 289 291 291 292 290 289 287 285 280 276 274 274 272 271 272 274 273 273 273
358 353 325 291 270 256 249 251 251 251 251 256 261 264 268 272 276 280 281 283 286 288 288 290 293 292 290 292 289 290 292 293 292 291 290 288 288 286 282 279 278 277 275 274 273 274 271 271 270
357 352 316 303 283 267 257 256 256 255 254 255 259 262 265 268 271 275 281 286 288 289 289 292 294 297 298 299 299 299 296 295 294 294 291 290 288 285 284 282 280 278 277 276 275 274 272 273 270
324 328 327 313 303 284 273 269 262 257 255 256 257 259 262 263 267 272 279 285 289 291 293 295 297 298 300 301 303 303 302 299 298 298 296 294 293 291 286 282 281 279 278 277 276 275 274 273 270
347 334 325 315 306 296 286 277 270 265 259 254 253 255 257 259 266 271 277 284 288 293 297 299 301 302 303 305 305 305 305 304 302 301 299 296 294 292 289 286 283 281 280 278 277 275 274 272 270
345 336 327 321 315 311 304 294 285 272 264 256 256 255 251 254 264 270 277 287 292 296 301 306 310 311 310 310 309 309 308 306 305 302 301 299 297 294 291 288 285 282 281 280 279 277 275 273 271
337 331 329 331 329 327 325 322 313 290 272 257 251 251 245 249 264 279 288 296 301 304 310 316 317 316 314 313 312 311 309 308 307 305 303 301 299 297 295 292 288 286 284 282 280 278 277 275 273
325 326 330 333 337 337 343 338 338 327 288 253 232 234 241 255 277 300 307 311 311 314 318 319 318 317 316 314 313 312 312 310 310 308 307 305 303 300 297 294 292 290 288 286 283 281 279 277 274
328 330 332 337 342 346 353 357 355 359 354 316 212 237 268 286 310 319 320 322 320 319 319 319 318 317 314 312 311 311 311 311 311 310 309 307 305 302 299 297 294 292 290 288 285 283 281 278 275
333 333 336 347 353 344 349 0 358 5 10 3 341 317 307 316 322 324 325 323 321 319 318 317 315 314 313 312 311 312 313 313 313 311 310 308 307 305 303 300 297 295 292 290 287 285 282 279 276
331 350 4 357 346 320 325 341 342 348 358 352 341 336 332 328 326 325 322 320 319 317 316 314 314 314 313 312 313 315 315 314 313 313 312 311 310 308 305 302 300 298 295 293 290 286 283 280 277
321 333 334 315 309 314 311 315 323 330 336 341 341 338 331 326 324 322 320 317 316 315 314 313 313 313 313 314 315 315 315 315 314 314 314 313 312 310 308 305 303 301 298 295 292 289 285 282 278
298 303 310 323 319 320 307 308 312 320 323 324 324 323 320 317 317 317 315 313 312 311 311 312 313 314 315 315 316 317 317 317 317 317 316 314 313 312 310 308 306 304 301 298 295 291 288 284 280
284 289 299 315 302 309 310 308 308 313 316 316 315 314 312 311 310 311 311 310 309 308 310 312 314 315 315 316 318 320 320 319 319 319 318 317 316 314 312 310 307 305 303 300 297 293 288 285 281
281 282 285 287 284 285 297 294 297 302 303 305 305 306 306 305 305 306 307 307 307 307 309 311 315 317 318 319 320 322 322 322 321 321 320 319 318 316 314 311 309 306 304 302 298 294 291 286 282
276 276 279 284 287 285 287 289 290 293 294 296 299 301 301 300 301 302 303 306 307 309 312 315 319 320 321 322 323 324 324 323 323 322 321 320 318 317 315 313 310 307 305 302 299 296 292 287 283
Height
5929 5929 5928 5928 5929 5929 5929 5928 5927 5926 5925 5924 5923 5922 5921 5921 5922 5923 5921 5919 5919 5919 5919 5919 5919 5919 5918 5918 5917 5917 5916 5916 5915 5915 5915 5914 5914 5914 5914 5913 5913 5913 5912 5912 5912 5911 5911 5911 5910
5928 5927 5928 5928 5928 5929 5928 5927 5926 5925 5924 5923 5922 5921 5920 5920 5919 5919 5918 5918 5918 5918 5918 5918 5918 5918 5918 5917 5917 5916 5916 5915 5915 5914 5914 5914 5913 5913 5913 5913 5912 5912 5912 5912 5911 5911 5911 5910 5910
5927 5926 5926 5926 5926 5927 5926 5925 5925 5924 5923 5922 5921 5920 5920 5918 5918 5918 5917 5917 5917 5917 5917 5917 5917 5917 5917 5916 5916 5915 5915 5914 5914 5913 5913 5912 5912 5912 5912 5912 5911 5911 5911 5911 5911 5910 5910 5909 5909
5925 5924 5924 5925 5923 5923 5923 5923 5922 5922 5921 5920 5920 5919 5918 5917 5917 5917 5916 5916 5915 5915 5915 5915 5915 5916 5915 5915 5915 5914 5913 5913 5912 5912 5911 5911 5911 5910 5910 5910 5910 5910 5910 5909 5909 5909 5908 5908 5908
5921 5921 5921 5921 5920 5919 5920 5920 5920 5920 5919 5919 5918 5917 5916 5916 5915 5915 5915 5914 5914 5914 5914 5914 5914 5914 5913 5913 5912 5912 5911 5911 5910 5910 5909 5909 5909 5908 5908 5908 5907 5907 5907 5907 5907 5906 5906 5906 5906
5918 5918 5918 5917 5915 5916 5916 5917 5917 5917 5917 5917 5916 5916 5915 5914 5914 5914 5913 5913 5913 5912 5912 5912 5912 5911 5911 5910 5910 5909 5909 5908 5908 5907 5907 5906 5906 5906 5905 5905 5905 5905 5904 5904 5904 5904 5903 5903 5903
5914 5913 5912 5912 5911 5911 5913 5914 5914 5914 5915 5914 5914 5914 5913 5912 5912 5912 5912 5911 5911 5911 5910 5910 5909 5909 5908 5908 5907 5906 5906 5905 5905 5904 5904 5904 5903 5903 5902 5902 5902 5902 5902 5901 5901 5901 5901 5900 5900
5907 5908 5907 5907 5907 5907 5908 5909 5910 5911 5911 5912 5912 5911 5911 5911 5910 5910 5910 5909 5909 5909 5908 5907 5907 5906 5905 5905 5904 5903 5903 5902 5901 5901 5901 5900 5899 5899 5898 5898 5898 5898 5898 5898 5898 5897 5897 5897 5897
5900 5903 5901 5900 5901 5901 5903 5905 5907 5908 5908 5908 5909 5909 5909 5909 5908 5908 5908 5907 5907 5906 5905 5904 5903 5902 5902 5901 5900 5899 5898 5898 5897 5897 5897 5896 5895 5894 5894 5893 5893 5894 5894 5894 5894 5893 5893 5892 5893
5894 5895 5894 5894 5895 5897 5898 5901 5903 5904 5904 5905 5905 5906 5906 5906 5906 5906 5906 5905 5904 5903 5902 5901 5900 5899 5898 5897 5896 5895 5894 5893 5893 5893 5892 5891 5890 5890 5889 5889 5888 5888 5889 5889 5889 5888 5888 5888 5888
5887 5888 5888 5888 5890 5892 5894 5897 5899 5900 5901 5902 5902 5903 5903 5903 5903 5903 5903 5902 5901 5900 5899 5897 5896 5895 5894 5893 5892 5891 5890 5889 5889 5888 5888 5886 5885 5884 5884 5883 5883 5883 5883 5883 5883 5883 5883 5882 5882
5882 5882 5882 5884 5886 5888 5890 5892 5894 5896 5897 5898 5899 5899 5900 5900 5900 5900 5899 5898 5897 5895 5894 5893 5892 5891 5890 5889 5888 5887 5886 5885 5884 5883 5882 5881 5879 5878 5878 5877 5877 5877 5877 5877 5877 5877 5877 5877 5877
5878 5878 5879 5880 5882 5884 5886 5888 5890 5891 5893 5894 5895 5896 5896 5896 5896 5895 5895 5893 5892 5891 5889 5888 5887 5886 5885 5884 5883 5882 5881 5879 5878 5878 5876 5875 5874 5873 5872 5871 5871 5871 5871 5871 5871 5871 5871 5871 5871
5876 5876 5876 5877 5878 5880 5882 5885 5886 5888 5889 5890 5891 5892 5892 5892 5892 5891 5890 5889 5888 5886 5885 5884 5883 5881 5880 5879 5878 5877 5876 5874 5873 5872 5871 5870 5869 5868 5867 5866 5866 5866 5865 5865 5865 5865 5865 5865 5865
5874 5874 5874 5875 5876 5877 5880 5881 5882 5883 5885 5886 5887 5888 5888 5888 5887 5887 5886 5885 5883 5882 5881 5880 5878 5876 5875 5874 5874 5873 5871 5870 5869 5868 5866 5865 5864 5863 5861 5860 5860 5860 5859 5859 5859 5859 5858 5858 5859
5874 5874 5875 5874 5874 5875 5878 5879 5878 5878 5880 5881 5882 5883 5883 5883 5883 5882 5881 5880 5879 5878 5877 5876 5875 5873 5872 5871 5870 5869 5867 5866 5864 5863 5861 5860 5858 5857 5855 5855 5854 5853 5853 5852 5852 5851 5852 5852 5852
5875 5877 5876 5874 5873 5873 5874 5874 5874 5874 5875 5876 5877 5878 5878 5879 5878 5878 5877 5876 5876 5875 5874 5873 5872 5870 5869 5868 5866 5865 5863 5862 5860 5858 5856 5854 5853 5851 5849 5848 5848 5847 5846 5845 5845 5844 5844 5844 5844
5878 5877 5875 5873 5871 5871 5871 5870 5870 5870 5871 5872 5872 5873 5874 5874 5874 5874 5873 5873 5872 5872 5871 5870 5868 5867 5866 5865 5863 5861 5859 5857 5855 5853 5851 5849 5847 5845 5843 5842 5841 5840 5839 5838 5837 5837 5836 5835 5836
5875 5874 5873 5871 5870 5869 5868 5867 5866 5866 5866 5867 5867 5868 5869 5870 5870 5870 5870 5870 5869 5868 5868 5867 5866 5864 5862 5861 5859 5857 5854 5852 5850 5847 5845 5843 5841 5839 5837 5835 5834 5832 5831 5830 5830 5829 5828 5828 5827
5874 5873 5872 5870 5868 5867 5866 5864 5863 5862 5862 5862 5863 5863 5865 5866 5866 5867 5867 5867 5866 5865 5865 5864 5862 5861 5859 5857 5854 5852 5849 5847 5844 5842 5839 5837 5834 5832 5830 5828 5827 5825 5824 5823 5822 5821 5820 5819 5819
5874 5873 5871 5869 5868 5866 5865 5863 5861 5859 5858 5858 5859 5860 5861 5863 5864 5864 5864 5864 5863 5863 5862 5860 5858 5856 5854 5852 5850 5847 5844 5841 5838 5836 5833 5831 5828 5826 5824 5822 5820 5818 5816 5815 5814 5813 5812 5811 5810
5873 5872 5870 5869 5868 5866 5865 5863 5860 5858 5857 5857 5858 5859 5860 5861 5862 5862 5861 5861 5861 5860 5859 5857 5855 5852 5850 5847 5845 5842 5839 5836 5833 5830 5827 5824 5822 5819 5817 5815 5813 5811 5809 5807 5806 5805 5804 5802 5802
5872 5871 5869 5868 5867 5866 5865 5863 5861 5858 5857 5857 5858 5858 5859 5860 5860 5860 5859 5859 5858 5857 5855 5853 5851 5849 5846 5843 5840 5837 5834 5831 5828 5825 5822 5819 5816 5813 5811 5808 5806 5804 5802 5800 5798 5796 5795 5794 5793
5871 5871 5869 5868 5868 5868 5866 5864 5862 5859 5858 5858 5858 5858 5859 5859 5858 5858 5857 5856 5855 5854 5852 5850 5848 5845 5842 5839 5836 5833 5830 5826 5823 5820 5816 5813 5810 5807 5804 5802 5799 5797 5794 5792 5790 5788 5786 5785 5783
5871 5871 5872 5871 5870 5868 5866 5864 5864 5861 5859 5859 5858 5858 5857 5857 5857 5856 5855 5854 5853 5851 5849 5847 5845 5842 5839 5835 5832 5829 5825 5821 5818 5814 5811 5807 5804 5801 5798 5795 5792 5789 5786 5784 5781 5779 5777 5775 5774
5871 5871 5872 5872 5871 5868 5865 5864 5863 5861 5860 5859 5858 5857 5857 5856 5855 5854 5853 5852 5850 5849 5846 5844 5841 5838 5835 5831 5828 5824 5821 5817 5813 5809 5806 5802 5798 5795 5791 5788 5784 5781 5778 5775 5772 5769 5767 5765 5763
5870 5869 5869 5869 5868 5868 5866 5863 5862 5860 5859 5858 5857 5856 5856 5855 5853 5852 5851 5849 5848 5846 5843 5840 5837 5834 5831 5827 5824 5820 5816 5812 5808 5804 5800 5796 5792 5788 5784 5780 5777 5773 5770 5766 5763 5760 5757 5754 5752
5869 5868 5868 5868 5867 5868 5866 5863 5862 5859 5858 5857 5856 5855 5854 5853 5851 5850 5848 5846 5844 5842 5840 5837 5834 5830 5827 5823 5819 5815 5811 5807 5803 5799 5795 5790 5786 5781 5777 5773 5768 5764 5760 5757 5753 5750 5747 5744 5741
5867 5866 5865 5866 5865 5866 5866 5865 5860 5858 5857 5855 5854 5853 5852 5850 5849 5847 5845 5843 5841 5839 5836 5833 5830 5826 5822 5818 5814 5810 5806 5802 5797 5793 5788 5783 5779 5774 5769 5764 5760 5755 5751 5747 5743 5739 5736 5733 5730
5864 5863 5863 5864 5863 5862 5863 5864 5857 5856 5854 5853 5852 5851 5849 5848 5846 5844 5842 5840 5838 5835 5832 5829 5825 5821 5817 5813 5809 5805 5800 5796 5791 5786 5781 5776 5771 5766 5761 5756 5751 5746 5741 5737 5732 5728 5725 5722 5719